EN

Hourly Weather a/p Chisinau International Airport

Today, 14 June, Monday

Time Temperature Precipitation Wind Pressure Humidity
00:00 +13°C° 0 mm 5 mps 754 mmHg 87%
01:00 +12°C° 0 mm 5 mps 754 mmHg 89%
02:00 +11°C° 0 mm 6 mps 754 mmHg 91%
03:00 +11°C° 0 mm 6 mps 754 mmHg 91%
04:00 +11°C° 0 mm 6 mps 754 mmHg 91%
05:00 +11°C° 0 mm 6 mps 754 mmHg 91%
06:00 +13°C° 0.1 mm 6 mps 754 mmHg 87%
07:00 +14°C° 0.1 mm 6 mps 754 mmHg 83%
08:00 +15°C° 0 mm 6 mps 754 mmHg 79%
09:00 +15°C° 0 mm 6 mps 754 mmHg 77%
10:00 +15°C° 0 mm 6 mps 755 mmHg 76%
11:00 +16°C° 0 mm 6 mps 755 mmHg 74%
12:00 +16°C° 0 mm 6 mps 755 mmHg 72%
13:00 +17°C° 0 mm 5 mps 755 mmHg 69%
14:00 +19°C° 0 mm 5 mps 755 mmHg 67%
15:00 +19°C° 0 mm 5 mps 755 mmHg 69%
16:00 +17°C° 0 mm 5 mps 755 mmHg 72%
17:00 +17°C° 0 mm 5 mps 755 mmHg 75%
18:00 +17°C° 0 mm 4 mps 755 mmHg 78%
19:00 +15°C° 0 mm 4 mps 755 mmHg 82%
20:00 +15°C° 0 mm 4 mps 755 mmHg 86%
21:00 +15°C° 0 mm 4 mps 755 mmHg 87%
22:00 +14°C° 0 mm 3 mps 755 mmHg 88%
23:00 +14°C° 0 mm 3 mps 756 mmHg 89%

Tomorrow, 15 June, Tuesday

Time Temperature Precipitation Wind Pressure Humidity
00:00 +14°C° 0 mm 3 mps 755 mmHg 91%
01:00 +14°C° 0 mm 3 mps 755 mmHg 93%
02:00 +14°C° 0 mm 3 mps 755 mmHg 94%
03:00 +14°C° 0 mm 3 mps 755 mmHg 95%
04:00 +14°C° 0 mm 3 mps 755 mmHg 95%
05:00 +14°C° 0 mm 3 mps 755 mmHg 95%
06:00 +17°C° 0 mm 3 mps 755 mmHg 89%
07:00 +19°C° 0 mm 4 mps 755 mmHg 82%
08:00 +21°C° 0 mm 4 mps 755 mmHg 75%
09:00 +23°C° 0 mm 5 mps 755 mmHg 69%
10:00 +25°C° 0 mm 5 mps 755 mmHg 63%
11:00 +27°C° 0 mm 5 mps 755 mmHg 56%
12:00 +27°C° 0.5 mm 5 mps 754 mmHg 56%
13:00 +27°C° 0.5 mm 5 mps 754 mmHg 55%
14:00 +28°C° 0.5 mm 5 mps 754 mmHg 55%
15:00 +26°C° 0.7 mm 5 mps 753 mmHg 61%
16:00 +25°C° 0.7 mm 5 mps 753 mmHg 67%
17:00 +23°C° 0.7 mm 5 mps 753 mmHg 73%
18:00 +22°C° 1.6 mm 5 mps 753 mmHg 77%
19:00 +21°C° 1.6 mm 5 mps 753 mmHg 82%
20:00 +20°C° 1.6 mm 4 mps 753 mmHg 86%
21:00 +20°C° 0.4 mm 4 mps 753 mmHg 88%
22:00 +19°C° 0.4 mm 4 mps 753 mmHg 89%
23:00 +19°C° 0.4 mm 4 mps 753 mmHg 91%

Day after tomorrow, 16 June, Wednesday

Time Temperature Precipitation Wind Pressure Humidity
00:00 +18°C° 0.7 mm 4 mps 753 mmHg 92%
01:00 +18°C° 0.7 mm 4 mps 753 mmHg 93%
02:00 +18°C° 0.7 mm 4 mps 753 mmHg 95%
03:00 +18°C° 0.6 mm 4 mps 753 mmHg 95%
04:00 +18°C° 0.6 mm 4 mps 753 mmHg 95%
05:00 +17°C° 0.6 mm 4 mps 753 mmHg 96%
06:00 +17°C° 0.5 mm 5 mps 753 mmHg 93%
07:00 +19°C° 0.5 mm 5 mps 754 mmHg 91%
08:00 +20°C° 0.5 mm 5 mps 754 mmHg 89%
09:00 +20°C° 0.2 mm 5 mps 754 mmHg 87%
10:00 +21°C° 0.2 mm 4 mps 754 mmHg 85%
11:00 +21°C° 0.2 mm 4 mps 755 mmHg 83%
12:00 +22°C° 0.8 mm 4 mps 754 mmHg 78%
13:00 +23°C° 0.8 mm 4 mps 754 mmHg 73%
14:00 +25°C° 0.8 mm 5 mps 754 mmHg 69%
15:00 +25°C° 1.4 mm 5 mps 754 mmHg 71%
16:00 +23°C° 1.4 mm 4 mps 754 mmHg 74%
17:00 +23°C° 1.4 mm 4 mps 754 mmHg 77%
18:00 +22°C° 2.1 mm 4 mps 755 mmHg 82%
19:00 +21°C° 2.1 mm 4 mps 755 mmHg 87%
20:00 +20°C° 2.1 mm 3 mps 755 mmHg 92%
21:00 +19°C° 0.6 mm 3 mps 755 mmHg 93%
22:00 +19°C° 0.6 mm 3 mps 755 mmHg 93%
23:00 +19°C° 0.6 mm 3 mps 755 mmHg 94%

17 June, Thursday

Time Temperature Precipitation Wind Pressure Humidity
00:00 +18°C° 0.1 mm 3 mps 756 mmHg 94%
01:00 +18°C° 0.1 mm 3 mps 756 mmHg 95%
02:00 +18°C° 0.1 mm 2 mps 756 mmHg 96%
03:00 +17°C° 0 mm 3 mps 756 mmHg 96%
04:00 +17°C° 0 mm 3 mps 756 mmHg 96%
05:00 +17°C° 0 mm 3 mps 756 mmHg 97%
06:00 +19°C° 0.1 mm 3 mps 757 mmHg 93%
07:00 +20°C° 0.1 mm 4 mps 757 mmHg 89%
08:00 +21°C° 0.1 mm 5 mps 757 mmHg 85%
09:00 +22°C° 0.3 mm 5 mps 757 mmHg 82%
10:00 +23°C° 0.3 mm 5 mps 758 mmHg 79%
11:00 +25°C° 0.3 mm 5 mps 758 mmHg 76%
12:00 +25°C° 1.2 mm 5 mps 758 mmHg 75%
13:00 +26°C° 1.2 mm 5 mps 757 mmHg 75%
14:00 +26°C° 1.2 mm 5 mps 757 mmHg 75%
15:00 +25°C° 2.2 mm 5 mps 757 mmHg 80%
16:00 +23°C° 2.2 mm 4 mps 757 mmHg 86%
17:00 +22°C° 2.2 mm 4 mps 758 mmHg 92%
18:00 +21°C° 0.9 mm 4 mps 758 mmHg 93%
19:00 +21°C° 0.9 mm 4 mps 758 mmHg 94%
20:00 +21°C° 0.9 mm 4 mps 758 mmHg 95%
21:00 +20°C° 0.4 mm 4 mps 758 mmHg 95%
22:00 +20°C° 0.4 mm 4 mps 758 mmHg 94%
23:00 +20°C° 0.4 mm 4 mps 759 mmHg 94%

18 June, Friday

Time Temperature Precipitation Wind Pressure Humidity
00:00 +20°C° 0.2 mm 4 mps 759 mmHg 95%
01:00 +20°C° 0.2 mm 4 mps 759 mmHg 95%
02:00 +20°C° 0.2 mm 4 mps 759 mmHg 96%
03:00 +20°C° 0 mm 4 mps 759 mmHg 96%
04:00 +19°C° 0 mm 4 mps 759 mmHg 96%
05:00 +19°C° 0 mm 4 mps 760 mmHg 96%
06:00 +20°C° 0 mm 5 mps 760 mmHg 94%
07:00 +21°C° 0 mm 5 mps 760 mmHg 91%
08:00 +21°C° 0 mm 6 mps 760 mmHg 89%
09:00 +22°C° 0.4 mm 6 mps 760 mmHg 88%
10:00 +22°C° 0.4 mm 6 mps 760 mmHg 88%
11:00 +22°C° 0.4 mm 6 mps 760 mmHg 87%
12:00 +23°C° 0.3 mm 6 mps 760 mmHg 82%
13:00 +24°C° 0.3 mm 6 mps 760 mmHg 77%
14:00 +26°C° 0.3 mm 6 mps 760 mmHg 72%
15:00 +23°C° 0.3 mm 6 mps 760 mmHg 76%
16:00 +22°C° 0.3 mm 5 mps 761 mmHg 81%
17:00 +20°C° 0.3 mm 4 mps 761 mmHg 85%
18:00 +20°C° 0.1 mm 4 mps 761 mmHg 87%
19:00 +19°C° 0.1 mm 3 mps 761 mmHg 90%
20:00 +19°C° 0.1 mm 3 mps 762 mmHg 92%
21:00 +18°C° 0 mm 3 mps 762 mmHg 92%
22:00 +18°C° 0 mm 2 mps 762 mmHg 93%
23:00 +18°C° 0 mm 2 mps 762 mmHg 93%

19 June, Saturday

Time Temperature Precipitation Wind Pressure Humidity
00:00 +18°C° 0 mm 2 mps 762 mmHg 94%
01:00 +17°C° 0 mm 2 mps 762 mmHg 96%
02:00 +17°C° 0 mm 2 mps 762 mmHg 97%
03:00 +18°C° 0 mm 2 mps 762 mmHg 97%
04:00 +18°C° 0 mm 2 mps 762 mmHg 96%
05:00 +18°C° 0 mm 3 mps 762 mmHg 96%
06:00 +20°C° 0 mm 3 mps 762 mmHg 90%
07:00 +21°C° 0 mm 4 mps 763 mmHg 84%
08:00 +22°C° 0 mm 5 mps 763 mmHg 78%
09:00 +23°C° 0 mm 5 mps 762 mmHg 73%
10:00 +25°C° 0 mm 5 mps 762 mmHg 69%
11:00 +26°C° 0 mm 6 mps 762 mmHg 64%
12:00 +26°C° 0.1 mm 6 mps 762 mmHg 64%
13:00 +26°C° 0.1 mm 5 mps 762 mmHg 64%
14:00 +26°C° 0.1 mm 5 mps 762 mmHg 64%
15:00 +26°C° 0.1 mm 5 mps 761 mmHg 65%
16:00 +26°C° 0.1 mm 4 mps 761 mmHg 67%
17:00 +26°C° 0.1 mm 3 mps 761 mmHg 68%
18:00 +25°C° 0.1 mm 3 mps 761 mmHg 71%
19:00 +24°C° 0.1 mm 3 mps 761 mmHg 74%
20:00 +23°C° 0.1 mm 2 mps 761 mmHg 76%
21:00 +21°C° 0 mm 2 mps 761 mmHg 79%
22:00 +20°C° 0 mm 3 mps 762 mmHg 81%
23:00 +20°C° 0 mm 3 mps 762 mmHg 84%
Show more